Find Starlink 3178

NORAD ID: 51467 Int'l Des: 2022-010 Owner: SPXS Country: US Constellation: starlink operational
LEOCIRCULAR

現在のビュー

3D地球を読み込み中...

About Starlink 3178

Starlink 3178 (NORAD 51467) is a starlink constellation satellite (v1.5) launched Feb 3, 2022 by SPXS of US. It operates in LEO, CIRCULAR orbit with a mass of 297.00 kg.

Starlink 3178について

説明を読み込み中...

次回通過

Passes for default location (London). Set your location on the main map for personalized predictions.

高度履歴

Loading altitude history...

軌道要素

1 51467U 22010M 26166.57334849 -.00001314 00000-0 -64481-4 0 9990
2 51467 53.1594 199.6175 0001626 63.1184 296.9973 15.08826112241295
Epoch: Jun 15, 2026 • Age: 6 hours

現在のステータス

高度 555.7 km
速度 7.58 km/s
衛星直下点 -44.94°S, 51.36°W
打ち上げ日 Feb 3, 2022
運用期間 4.3 years
タイプ internet

技術仕様

分類 Payload
質量 297.00 kg
乾燥質量 275.00 kg
総質量 297.00 kg
長さ 0.20 m
直径 2.80 m
スパン 9.00 m
形状 Box + pan
製造者 SPXS
バスタイプ Starlink
フェーズステータス In Orbit
所有者/国 SPXS/US

Most Searched